Epoch 2006 May 25.0 TT = JDT 2453880.5
T 2006 May 11.7612 TT MPCN
q 1.227799 (2000.0) P Q
n 0.1491778 Peri. 219.9689 +0.9859954 -0.1491324
a 3.521004 Node 148.3707 +0.1643337 +0.9450786
e 0.651293 Incl. 8.1836 -0.0284158 +0.2908367
P 6.61
From 104 observations 1999 Sept. 7-Nov. 13, mean residual 0".8.